カタログに戻る

SL-14 R/B

運用中PO
NORAD 21734·ROCKET BODY·🇷🇺 Russia

打ち上げ Sep 28, 1991 から Plesetsk Cosmodrome

Loading…

次のパス (今後24時間)

TLE

最新Source: Space-Track

元期: Sep 14, 2026, 15:01 UTC

1 21734U 91068G   26257.62575285  .00000000  00000-0 -66387-4 0  9998
2 21734  82.5829  33.4471 0108384 179.9719 190.5739 12.54257396601018

AllMySatでSL-14 R/Bをリアルタイム追跡

Download on the App Store